Location: Unspecified
(0.0000°N, 0.0000°E)
Time: 08:27:30
(UTC+00:00)

ISS - Pass Details

Date: 23 February 2018
Orbit: 402 x 407 km, 51.6° (Epoch: 24 February)

Event Time Altitude Azimuth Distance (km) Brightness Sun altitude
Exits shadow 04:39:41 46° 117° (ESE) 551 -2.8 -23.1°
Drops below altitude 10° 04:42:42 10° 50° (NE) 1,451 -0.5 -22.3°
Sets 04:44:48 0° 44° (NE) 2,306 0.5 -21.8°
